sat.trackr.live / text

‹ back to catalog

STARLINK-1905

NORAD 46746 · 2020-074H

PAYLOAD ACTIVE UNKNOWN

§ Identity

Operator
Country
US
Launch date
2020-10-24
Launch site
AFETR
Launch vehicle
Mass (kg)
RCS (m²)

Purposes: comms

External: N2YO · Heavens-Above · Gunter

§ Orbital elements

Epoch: 2026-05-25T00:00:02.000160Z

Period
91.12 min
Inclination
53.0363°
Eccentricity
0.0005316
Mean motion
15.80314650 rev/d
Perigee alt
326.0 km
Apogee alt
333.1 km
Semi-major
6,707.7 km
B*
3.9870e-4
RAAN
265.4223°
Arg perigee
288.0148°
Mean anomaly
270.4048°
Rev number
600

§ Raw data

STARLINK-19051 46746U 20074H   26145.00002315  .00076758  00000+0  39870-3 0  99912 46746  53.0363 265.4223 0005316 288.0148 270.4048 15.80314650  6003

JSON: /api/v1/satellites/46746 · /tle

For live sub-satellite position, see the globe view (requires WebGL).

§ Visibility from observer

Set your observer location to see the next 7 days of passes ≥ 10°. The values pass through the URL so the page stays shareable.

No JS? Fill the form by hand. The geolocation button needs JavaScript.